| time (UTC) | temp C | wind direction | speed KPH | gust KPH | rain 1hr cm | rain 24hr cm | rain mn cm | humidity % | barometer mb |
| 20260503204530 | 18 | 219 | 8.0 | 33.8 | 0.00 | 0.00 | 0.00 | 50 | 1004.8 |
| 20260503204016 | 18 | 219 | 12.9 | 33.8 | 0.00 | 0.00 | 0.00 | 50 | 1004.8 |
| 20260503203515 | 18 | 115 | 11.3 | 30.6 | 0.00 | 0.00 | 0.00 | 50 | 1004.8 |
| 20260503203031 | 18 | 157 | 14.5 | 37.0 | 0.00 | 0.00 | 0.00 | 50 | 1005.2 |
| 20260503202513 | 18 | 285 | 16.1 | 37.0 | 0.00 | 0.00 | 0.00 | 50 | 1005.4 |
| 20260503202013 | 17 | 209 | 14.5 | 37.0 | 0.00 | 0.00 | 0.00 | 50 | 1005.5 |
| 20260503201530 | 17 | 170 | 19.3 | 45.1 | 0.00 | 0.00 | 0.00 | 49 | 1005.7 |
| 20260503201016 | 17 | 188 | 12.9 | 46.7 | 0.00 | 0.00 | 0.00 | 51 | 1005.7 |
| 20260503200519 | 17 | 184 | 19.3 | 46.7 | 0.00 | 0.00 | 0.00 | 49 | 1005.9 |
| 20260503200032 | 17 | 185 | 19.3 | 48.3 | 0.00 | 0.00 | 0.00 | 49 | 1006.0 |
| 20260503195512 | 17 | 224 | 22.5 | 48.3 | 0.00 | 0.00 | 0.00 | 47 | 1005.9 |
| 20260503195018 | 18 | 232 | 22.5 | 59.5 | 0.00 | 0.00 | 0.00 | 45 | 1005.9 |
| 20260503194530 | 18 | 217 | 24.1 | 59.5 | 0.00 | 0.00 | 0.00 | 44 | 1005.7 |
| 20260503194015 | 18 | 233 | 22.5 | 45.1 | 0.00 | 0.00 | 0.00 | 44 | 1005.8 |
| 20260503193518 | 18 | 232 | 19.3 | 45.1 | 0.00 | 0.00 | 0.00 | 43 | 1005.9 |
| 20260503193030 | 18 | 186 | 16.1 | 46.7 | 0.00 | 0.00 | 0.00 | 43 | 1005.9 |
| 20260503192514 | 18 | 245 | 22.5 | 46.7 | 0.00 | 0.00 | 0.00 | 42 | 1006.0 |
| 20260503192015 | 18 | 208 | 16.1 | 38.6 | 0.00 | 0.00 | 0.00 | 42 | 1005.9 |
| 20260503191534 | 18 | 219 | 14.5 | 35.4 | 0.00 | 0.00 | 0.00 | 45 | 1005.9 |
| 20260503191015 | 18 | 239 | 17.7 | 35.4 | 0.00 | 0.00 | 0.00 | 44 | 1006.0 |
| 20260503190516 | 18 | 188 | 16.1 | 38.6 | 0.00 | 0.00 | 0.00 | 45 | 1006.0 |
| 20260503190030 | 18 | 198 | 16.1 | 38.6 | 0.00 | 0.00 | 0.00 | 45 | 1006.1 |
| 20260503185515 | 17 | 196 | 12.9 | 40.2 | 0.00 | 0.00 | 0.00 | 44 | 1006.2 |
| 20260503185015 | 17 | 211 | 20.9 | 45.1 | 0.00 | 0.00 | 0.00 | 45 | 1006.4 |
| 20260503184528 | 17 | 184 | 16.1 | 45.1 | 0.00 | 0.00 | 0.00 | 47 | 1006.3 |
| 20260503184015 | 17 | 192 | 16.1 | 40.2 | 0.00 | 0.00 | 0.00 | 46 | 1006.5 |
| 20260503183514 | 17 | 225 | 19.3 | 49.9 | 0.00 | 0.00 | 0.00 | 45 | 1006.3 |
| 20260503183030 | 17 | 158 | 16.1 | 51.5 | 0.00 | 0.00 | 0.00 | 49 | 1006.5 |
| 20260503182512 | 16 | 184 | 19.3 | 51.5 | 0.00 | 0.00 | 0.00 | 50 | 1006.6 |
| 20260503182016 | 16 | 158 | 16.1 | 35.4 | 0.00 | 0.00 | 0.00 | 53 | 1006.8 |
| 20260503181530 | 16 | 173 | 12.9 | 35.4 | 0.00 | 0.00 | 0.00 | 54 | 1006.7 |
| 20260503181015 | 16 | 191 | 14.5 | 40.2 | 0.00 | 0.00 | 0.00 | 54 | 1006.8 |
| 20260503180516 | 16 | 175 | 17.7 | 40.2 | 0.00 | 0.00 | 0.00 | 53 | 1006.9 |
| 20260503180032 | 16 | 151 | 12.9 | 40.2 | 0.00 | 0.00 | 0.00 | 56 | 1006.9 |
| 20260503175516 | 15 | 270 | 11.3 | 43.5 | 0.00 | 0.00 | 0.00 | 55 | 1007.1 |
| 20260503175015 | 15 | 218 | 14.5 | 43.5 | 0.00 | 0.00 | 0.00 | 54 | 1007.1 |
| 20260503174532 | 15 | 209 | 16.1 | 41.8 | 0.00 | 0.00 | 0.00 | 55 | 1007.5 |
| 20260503174014 | 15 | 128 | 12.9 | 35.4 | 0.00 | 0.00 | 0.00 | 56 | 1007.4 |
| 20260503173514 | 15 | 202 | 17.7 | 35.4 | 0.00 | 0.00 | 0.00 | 56 | 1007.6 |
| 20260503173030 | 15 | 173 | 12.9 | 35.4 | 0.00 | 0.00 | 0.00 | 55 | 1007.7 |
| 20260503172516 | 15 | 202 | 14.5 | 35.4 | 0.00 | 0.00 | 0.00 | 57 | 1007.7 |
| 20260503172015 | 14 | 181 | 12.9 | 35.4 | 0.00 | 0.00 | 0.00 | 59 | 1007.8 |
| 20260503171531 | 13 | 227 | 16.1 | 32.2 | 0.00 | 0.00 | 0.00 | 58 | 1008.0 |
| 20260503171017 | 13 | 230 | 9.7 | 25.7 | 0.00 | 0.00 | 0.00 | 60 | 1008.0 |
| 20260503170515 | 13 | 182 | 11.3 | 30.6 | 0.00 | 0.00 | 0.00 | 61 | 1008.1 |
| 20260503151014 | 14 | 238 | 12.9 | 45.1 | 0.00 | 0.00 | 0.00 | 54 | 1009.4 |
| 20260503150514 | 14 | 221 | 14.5 | 45.1 | 0.00 | 0.00 | 0.00 | 53 | 1009.4 |
| 20260503131018 | 11 | 198 | 9.7 | 25.7 | 0.00 | 0.00 | 0.00 | 56 | 1010.5 |
| 20260503130514 | 10 | 268 | 11.3 | 27.4 | 0.00 | 0.00 | 0.00 | 57 | 1010.5 |
| 20260503110515 | 8 | 211 | 11.3 | 22.5 | 0.00 | 0.00 | 0.00 | 54 | 1010.3 |
| 20260503081528 | 9 | 223 | 8.0 | 25.7 | 0.00 | 0.00 | 0.00 | 51 | 1011.5 |
| 20260503081017 | 8 | 198 | 8.0 | 20.9 | 0.00 | 0.00 | 0.00 | 52 | 1011.5 |
| 20260503080514 | 8 | 216 | 8.0 | 19.3 | 0.00 | 0.00 | 0.00 | 52 | 1011.5 |
| 20260503072512 | 8 | 180 | 3.2 | 12.9 | 0.00 | 0.00 | 0.00 | 55 | 1011.7 |
| 20260503072012 | 7 | 163 | 4.8 | 12.9 | 0.00 | 0.00 | 0.00 | 55 | 1011.8 |
| 20260503071536 | 7 | 209 | 4.8 | 12.9 | 0.00 | 0.00 | 0.00 | 56 | 1011.8 |
| 20260503071011 | 7 | 197 | 4.8 | 12.9 | 0.00 | 0.00 | 0.00 | 56 | 1011.9 |
| 20260503070512 | 7 | 145 | 6.4 | 12.9 | 0.00 | 0.00 | 0.00 | 57 | 1011.9 |
| 20260503055014 | 5 | 0 | 0.0 | 6.4 | 0.00 | 0.00 | 0.00 | 66 | 1012.4 |
| 20260503054535 | 5 | 192 | 0.0 | 6.4 | 0.00 | 0.00 | 0.00 | 66 | 1012.5 |
| 20260503054015 | 5 | 0 | 0.0 | 6.4 | 0.00 | 0.00 | 0.00 | 67 | 1012.4 |
| 20260503053513 | 5 | 240 | 0.0 | 6.4 | 0.00 | 0.00 | 0.00 | 68 | 1012.5 |
| 20260503053033 | 5 | 182 | 1.6 | 6.4 | 0.00 | 0.00 | 0.00 | 68 | 1012.5 |
| 20260503052514 | 5 | 0 | 1.6 | 6.4 | 0.00 | 0.00 | 0.00 | 69 | 1012.5 |
| 20260503052017 | 5 | 183 | 0.0 | 6.4 | 0.00 | 0.00 | 0.00 | 70 | 1012.7 |
| 20260503051535 | 5 | 189 | 0.0 | 6.4 | 0.00 | 0.00 | 0.00 | 72 | 1012.7 |
| 20260503051012 | 4 | 173 | 0.0 | 6.4 | 0.00 | 0.00 | 0.00 | 72 | 1012.7 |
| 20260503050514 | 4 | 196 | 1.6 | 4.8 | 0.00 | 0.00 | 0.00 | 72 | 1012.8 |
| 20260503050037 | 4 | 0 | 1.6 | 4.8 | 0.00 | 0.00 | 0.00 | 73 | 1012.8 |
| 20260503045514 | 4 | 0 | 0.0 | 4.8 | 0.00 | 0.00 | 0.00 | 73 | 1012.7 |
| 20260503045018 | 4 | 0 | 0.0 | 4.8 | 0.00 | 0.00 | 0.00 | 74 | 1012.8 |
| 20260503044532 | 4 | 0 | 0.0 | 9.7 | 0.00 | 0.00 | 0.00 | 74 | 1012.9 |
| 20260503044013 | 4 | 0 | 0.0 | 9.7 | 0.00 | 0.00 | 0.00 | 74 | 1012.8 |
| 20260503043513 | 4 | 0 | 0.0 | 3.2 | 0.00 | 0.00 | 0.00 | 74 | 1012.9 |
| 20260503043031 | 4 | 159 | 0.0 | 3.2 | 0.00 | 0.00 | 0.00 | 74 | 1012.9 |
| 20260503042514 | 4 | 173 | 0.0 | 6.4 | 0.00 | 0.00 | 0.00 | 74 | 1013.0 |
| 20260503042014 | 4 | 0 | 1.6 | 8.0 | 0.00 | 0.00 | 0.00 | 74 | 1013.0 |
| 20260503041537 | 4 | 0 | 1.6 | 8.0 | 0.00 | 0.00 | 0.00 | 74 | 1013.0 |
| 20260503041013 | 4 | 0 | 0.0 | 4.8 | 0.00 | 0.00 | 0.00 | 74 | 1013.0 |
| 20260503040513 | 5 | 0 | 0.0 | 4.8 | 0.00 | 0.00 | 0.00 | 74 | 1013.1 |
| 20260503040029 | 5 | 0 | 0.0 | 8.0 | 0.00 | 0.00 | 0.00 | 74 | 1013.1 |
| 20260503035513 | 5 | 180 | 1.6 | 8.0 | 0.00 | 0.00 | 0.00 | 74 | 1013.1 |
| 20260503035013 | 5 | 0 | 1.6 | 6.4 | 0.00 | 0.00 | 0.00 | 74 | 1013.2 |
| 20260503034531 | 5 | 182 | 0.0 | 6.4 | 0.00 | 0.00 | 0.00 | 74 | 1013.2 |
| 20260503034015 | 5 | 194 | 1.6 | 8.0 | 0.00 | 0.00 | 0.00 | 73 | 1013.2 |
| 20260503033511 | 5 | 0 | 1.6 | 8.0 | 0.00 | 0.00 | 0.00 | 73 | 1013.3 |
| 20260503033033 | 5 | 175 | 0.0 | 6.4 | 0.00 | 0.00 | 0.00 | 73 | 1013.3 |
| 20260503032518 | 5 | 0 | 1.6 | 6.4 | 0.00 | 0.00 | 0.00 | 73 | 1013.3 |
| 20260503032015 | 5 | 175 | 0.0 | 6.4 | 0.00 | 0.00 | 0.00 | 73 | 1013.3 |
| 20260503031531 | 5 | 190 | 1.6 | 4.8 | 0.00 | 0.00 | 0.00 | 73 | 1013.5 |
| 20260503031014 | 5 | 136 | 1.6 | 8.0 | 0.00 | 0.00 | 0.00 | 72 | 1013.5 |
| 20260503030513 | 5 | 150 | 1.6 | 8.0 | 0.00 | 0.00 | 0.00 | 72 | 1013.6 |
| 20260503030036 | 5 | 168 | 1.6 | 6.4 | 0.00 | 0.00 | 0.00 | 71 | 1013.7 |
| 20260503025510 | 5 | 0 | 1.6 | 9.7 | 0.00 | 0.00 | 0.00 | 71 | 1013.7 |
| 20260503025011 | 6 | 151 | 1.6 | 9.7 | 0.00 | 0.00 | 0.00 | 71 | 1013.8 |
| 20260503024530 | 6 | 0 | 1.6 | 9.7 | 0.00 | 0.00 | 0.00 | 71 | 1013.7 |
| 20260503024014 | 6 | 202 | 1.6 | 9.7 | 0.00 | 0.00 | 0.00 | 70 | 1013.8 |
| 20260503023513 | 6 | 190 | 3.2 | 8.0 | 0.00 | 0.00 | 0.00 | 70 | 1013.8 |
| 20260503023031 | 6 | 134 | 3.2 | 11.3 | 0.00 | 0.00 | 0.00 | 69 | 1013.8 |
| 20260503022513 | 6 | 173 | 1.6 | 11.3 | 0.00 | 0.00 | 0.00 | 69 | 1013.7 |
| 20260503022010 | 6 | 149 | 3.2 | 11.3 | 0.00 | 0.00 | 0.00 | 69 | 1013.8 |
| 20260503021529 | 6 | 194 | 1.6 | 11.3 | 0.00 | 0.00 | 0.00 | 68 | 1013.7 |
| 20260503021013 | 6 | 157 | 3.2 | 11.3 | 0.00 | 0.00 | 0.00 | 67 | 1013.8 |
| 20260503020511 | 6 | 167 | 1.6 | 14.5 | 0.00 | 0.00 | 0.00 | 67 | 1013.7 |
| 20260503020031 | 6 | 0 | 1.6 | 14.5 | 0.00 | 0.00 | 0.00 | 67 | 1013.7 |
| 20260503015514 | 6 | 119 | 4.8 | 11.3 | 0.00 | 0.00 | 0.00 | 66 | 1013.6 |
| 20260503015014 | 6 | 169 | 1.6 | 8.0 | 0.00 | 0.00 | 0.00 | 66 | 1013.6 |
| 20260503014530 | 6 | 173 | 3.2 | 9.7 | 0.00 | 0.00 | 0.00 | 65 | 1013.5 |
| 20260503014015 | 6 | 148 | 3.2 | 9.7 | 0.00 | 0.00 | 0.00 | 65 | 1013.5 |
| 20260503013515 | 6 | 166 | 3.2 | 9.7 | 0.00 | 0.00 | 0.00 | 64 | 1013.5 |
| 20260503013036 | 7 | 119 | 1.6 | 8.0 | 0.00 | 0.00 | 0.00 | 64 | 1013.5 |
| 20260503012515 | 7 | 133 | 3.2 | 8.0 | 0.00 | 0.00 | 0.00 | 64 | 1013.6 |
| 20260503012015 | 7 | 130 | 3.2 | 8.0 | 0.00 | 0.00 | 0.00 | 63 | 1013.5 |
| 20260503011530 | 7 | 164 | 1.6 | 8.0 | 0.00 | 0.00 | 0.00 | 63 | 1013.5 |
| 20260503011014 | 7 | 130 | 3.2 | 8.0 | 0.00 | 0.00 | 0.00 | 62 | 1013.5 |
| 20260503010515 | 7 | 128 | 1.6 | 9.7 | 0.00 | 0.00 | 0.00 | 62 | 1013.6 |
| 20260503010036 | 7 | 158 | 3.2 | 9.7 | 0.00 | 0.00 | 0.00 | 61 | 1013.5 |
| 20260503005515 | 7 | 166 | 3.2 | 11.3 | 0.00 | 0.00 | 0.00 | 60 | 1013.5 |
| 20260503005016 | 7 | 146 | 1.6 | 11.3 | 0.00 | 0.00 | 0.00 | 60 | 1013.5 |
| 20260503004530 | 8 | 0 | 1.6 | 11.3 | 0.00 | 0.00 | 0.00 | 59 | 1013.5 |
| 20260503004016 | 8 | 153 | 3.2 | 14.5 | 0.00 | 0.00 | 0.00 | 58 | 1013.5 |
| 20260503003515 | 8 | 136 | 1.6 | 14.5 | 0.00 | 0.00 | 0.00 | 57 | 1013.6 |
| 20260503003028 | 8 | 126 | 3.2 | 9.7 | 0.00 | 0.00 | 0.00 | 57 | 1013.6 |
| 20260503002515 | 8 | 143 | 3.2 | 12.9 | 0.00 | 0.00 | 0.00 | 56 | 1013.7 |
| 20260503002015 | 8 | 110 | 4.8 | 12.9 | 0.00 | 0.00 | 0.00 | 56 | 1013.7 |
| 20260503001541 | 8 | 149 | 4.8 | 14.5 | 0.00 | 0.00 | 0.00 | 55 | 1013.7 |
| 20260503001015 | 8 | 159 | 4.8 | 14.5 | 0.00 | 0.00 | 0.00 | 54 | 1013.8 |
| 20260503000515 | 9 | 119 | 4.8 | 12.9 | 0.00 | 0.00 | 0.00 | 54 | 1013.8 |
| 20260503000030 | 9 | 0 | 4.8 | 11.3 | 0.00 | 0.00 | 0.00 | 53 | 1013.7 |
| 20260502235514 | 9 | 143 | 3.2 | 12.9 | 0.00 | 0.00 | 0.00 | 53 | 1013.8 |
| 20260502235015 | 9 | 165 | 4.8 | 12.9 | 0.00 | 0.00 | 0.00 | 52 | 1013.8 |
| 20260502234537 | 10 | 162 | 3.2 | 12.9 | 0.00 | 0.00 | 0.00 | 53 | 1013.9 |
| 20260502234019 | 10 | 130 | 6.4 | 12.9 | 0.00 | 0.00 | 0.00 | 51 | 1013.9 |
| 20260502233518 | 10 | 129 | 4.8 | 12.9 | 0.00 | 0.00 | 0.00 | 52 | 1014.0 |
| 20260502233029 | 10 | 128 | 4.8 | 12.9 | 0.00 | 0.00 | 0.00 | 53 | 1014.1 |
| 20260502232517 | 10 | 157 | 3.2 | 12.9 | 0.00 | 0.00 | 0.00 | 52 | 1014.1 |
| 20260502232012 | 10 | 119 | 3.2 | 12.9 | 0.00 | 0.00 | 0.00 | 51 | 1014.1 |
| 20260502231530 | 10 | 94 | 6.4 | 12.9 | 0.00 | 0.00 | 0.00 | 50 | 1014.2 |
| 20260502231015 | 10 | 101 | 4.8 | 12.9 | 0.00 | 0.00 | 0.00 | 51 | 1014.2 |
| 20260502230515 | 10 | 112 | 4.8 | 12.9 | 0.00 | 0.00 | 0.00 | 51 | 1014.3 |
| 20260502230034 | 10 | 187 | 6.4 | 12.9 | 0.00 | 0.00 | 0.00 | 51 | 1014.2 |
| 20260502225514 | 10 | 181 | 4.8 | 14.5 | 0.00 | 0.00 | 0.00 | 51 | 1014.3 |
| 20260502225020 | 10 | 138 | 4.8 | 14.5 | 0.00 | 0.00 | 0.00 | 50 | 1014.4 |
| 20260502224532 | 10 | 192 | 3.2 | 14.5 | 0.00 | 0.00 | 0.00 | 50 | 1014.5 |
| 20260502224015 | 10 | 141 | 6.4 | 14.5 | 0.00 | 0.00 | 0.00 | 52 | 1014.5 |
| 20260502223515 | 10 | 135 | 4.8 | 14.5 | 0.00 | 0.00 | 0.00 | 50 | 1014.5 |
| 20260502223032 | 10 | 111 | 4.8 | 14.5 | 0.00 | 0.00 | 0.00 | 52 | 1014.5 |
| 20260502222515 | 10 | 134 | 3.2 | 16.1 | 0.00 | 0.00 | 0.00 | 51 | 1014.6 |
| 20260502222014 | 10 | 126 | 9.7 | 16.1 | 0.00 | 0.00 | 0.00 | 49 | 1014.6 |
| 20260502221532 | 10 | 142 | 8.0 | 16.1 | 0.00 | 0.00 | 0.00 | 49 | 1014.6 |
| 20260502221015 | 11 | 126 | 4.8 | 16.1 | 0.00 | 0.00 | 0.00 | 49 | 1014.7 |
| 20260502220515 | 11 | 132 | 6.4 | 17.7 | 0.00 | 0.00 | 0.00 | 48 | 1014.7 |
| 20260502220030 | 11 | 115 | 8.0 | 17.7 | 0.00 | 0.00 | 0.00 | 47 | 1014.8 |
| 20260502215516 | 11 | 138 | 6.4 | 16.1 | 0.00 | 0.00 | 0.00 | 51 | 1014.7 |
| 20260502215016 | 11 | 86 | 8.0 | 16.1 | 0.00 | 0.00 | 0.00 | 48 | 1014.7 |
| 20260502214531 | 11 | 116 | 6.4 | 14.5 | 0.00 | 0.00 | 0.00 | 49 | 1014.7 |
| 20260502214015 | 11 | 136 | 8.0 | 14.5 | 0.00 | 0.00 | 0.00 | 46 | 1014.8 |
| 20260502213515 | 11 | 96 | 4.8 | 16.1 | 0.00 | 0.00 | 0.00 | 47 | 1014.9 |
| 20260502213030 | 11 | 115 | 4.8 | 16.1 | 0.00 | 0.00 | 0.00 | 48 | 1015.0 |
| 20260502212518 | 11 | 126 | 6.4 | 16.1 | 0.00 | 0.00 | 0.00 | 48 | 1015.0 |
| 20260502212014 | 11 | 148 | 1.6 | 12.9 | 0.00 | 0.00 | 0.00 | 52 | 1015.0 |
| 20260502211530 | 11 | 104 | 6.4 | 14.5 | 0.00 | 0.00 | 0.00 | 49 | 1015.0 |
| 20260502211018 | 11 | 97 | 4.8 | 14.5 | 0.00 | 0.00 | 0.00 | 48 | 1015.2 |
| 20260502210514 | 11 | 138 | 3.2 | 12.9 | 0.00 | 0.00 | 0.00 | 49 | 1015.2 |
| 20260502210031 | 11 | 112 | 3.2 | 16.1 | 0.00 | 0.00 | 0.00 | 48 | 1015.3 |
| 20260502205517 | 11 | 126 | 6.4 | 17.7 | 0.00 | 0.00 | 0.00 | 47 | 1015.2 |
| 20260502205016 | 11 | 140 | 6.4 | 17.7 | 0.00 | 0.00 | 0.00 | 47 | 1015.3 |